Preview of NWS' New Version of Forecast
This preview is not operational and should not be used for support decisions.

Regional Weather Roundup (RWR)

Issued by National Weather Service (NWS)

                            
000
ASUS43 KMKX 190700
RWRWI 

WISCONSIN REGIONAL WEATHER ROUNDUP
NATIONAL WEATHER SERVICE MILWAUKEE/SULLIVAN WI
200 AM CDT TUE MAR 19 2019

NOTE: "FAIR" INDICATES FEW OR NO CLOUDS BELOW 12,000 FEET WITH NO
SIGNIFICANT WEATHER AND/OR OBSTRUCTIONS TO VISIBILITY.

WIZ001-002-006>008-014>016-023>028-190800-
NORTHWEST WISCONSIN
  
CITY           SKY/WX    TMP DP  RH WIND       PRES   REMARKS
SUPERIOR ARPT  FAIR      30  23  73 SW7       30.24S WCI  23          
ASHLAND        CLOUDY    31  22  69 SW10      30.24F WCI  22          
HAYWARD        FAIR      22  19  89 CALM      30.26R                  
SIREN          CLOUDY    30  25  81 S5        30.27F WCI  25          
CUMBERLAND     FAIR      28  23  80 SW3       30.27S                  
RICE LAKE      MOCLDY    30  26  86 CALM      30.29S                  
CHETEK         MOCLDY    28  25  89 CALM      30.29R                  
LADYSMITH      CLOUDY    29  25  83 CALM      30.29S                  
EAU CLAIRE     NOT AVBL                                               
MENOMONIE      FAIR      24  21  88 CALM      30.31S                  
NEW RICHMOND   MOCLDY    30  25  82 S5        30.28F WCI  25          
OSCEOLA        MOCLDY    29  26  87 S5        30.31S WCI  24          
$$
 
WIZ003>005-009-010-017-018-190800-
NORTH CENTRAL WISCONSIN
  
CITY           SKY/WX    TMP DP  RH WIND       PRES   REMARKS
MANITOWISH WTR NOT AVBL                                               
ARBOR VITAE    MOCLDY    29  24  79 CALM      30.24R                  
WOODRUFF       MOCLDY    29  24  79 CALM      30.24R                  
RHINELANDER    MOCLDY    29  21  72 SW6       30.25S WCI  23          
EAGLE RIVER    FAIR      25  19  77 SW3       30.23S                  
LAND O LAKES   CLOUDY    30  22  70 SW3       30.23F                  
PHILLIPS       MOCLDY    20  19  97 CALM      30.25S                  
TOMAHAWK       FAIR      20  17  87 CALM      30.27S                  
MEDFORD        MOCLDY    27  23  84 CALM      30.27R                  
MERRILL        FAIR      20  19  93 CALM      30.28S                  
$$
 
WIZ029-030-035-036-043>047-190800-
CENTRAL WISCONSIN
  
CITY           SKY/WX    TMP DP  RH WIND       PRES   REMARKS
WAUSAU         MOCLDY    27  22  81 CALM      30.27S                  
MOSINEE        FAIR      28  23  80 W3        30.29S                  
MARSHFIELD     FAIR      28  22  78 SW3       30.28R                  
STEVENS POINT  FAIR      25  23  93 CALM      30.30S                  
WAUPACA        FAIR      31  24  74 W3        30.31S                  
WAUTOMA        NOT AVBL                                               
WISC RAPIDS    FAIR      27  20  75 CALM      30.31S                  
CAMP DOUGLAS   FAIR      26  26  99 CALM      30.32S                  
$$
 
WIZ011>013-019>022-031-037>040-048>050-190800-
NORTHEAST WISCONSIN
  
CITY           SKY/WX    TMP DP  RH WIND       PRES   REMARKS
ANTIGO         FAIR      25  20  84 CALM      30.27S                  
SHAWANO        NOT AVBL                                               
OCONTO         FAIR      26  21  80 W3        30.31R                  
STURGEON BAY   CLOUDY    32  22  66 SW5       30.31R WCI  27          
GREEN BAY      FAIR      33  25  72 SW5       30.31S WCI  29          
MANITOWOC      FAIR      31  24  75 SW6       30.33R WCI  25          
APPLETON       FAIR      32  19  59 W6        30.29S WCI  26          
CLINTONVILLE   FAIR      27  21  78 CALM      30.31R                  
OSHKOSH        FAIR      32  23  69 CALM      30.32R                  
$$
 
WIZ032>034-041-042-053>061-190800-
SOUTHWEST WISCONSIN
  
CITY           SKY/WX    TMP DP  RH WIND       PRES   REMARKS
LA CROSSE      FAIR      31  26  82 S5        30.34R WCI  26          
SPARTA         FAIR      24  22  94 CALM      30.34R                  
VIROQUA        FAIR      29  28  96 W3        30.32S                  
BOSCOBEL       FAIR      28  23  81 SW3       30.36R                  
PRAIRIE DU CHI FAIR      28  24  86 CALM      30.36S                  
PLATTEVILLE    FAIR      32  28  86 SW5       30.36R WCI  27          
$$

WIZ056-057-062-063-064-067-068-190800-
SOUTH CENTRAL WISCONSIN
  
CITY           SKY/WX    TMP DP  RH WIND       PRES   REMARKS
REEDSBURG      FAIR      27  24  87 CALM      30.33S                  
BARABOO/DELLS  FAIR      31  24  73 SW5       30.33R WCI  27          
LONE ROCK      FAIR      29  27  92 CALM      30.36R                  
MINERAL POINT  FAIR      32  28  86 W3        30.34R                  
MADISON        MOCLDY    29  23  78 CALM      30.34R                  
MIDDLETON      FAIR      30  25  81 CALM      30.35R                  
WATERTOWN      FAIR      26  26 100 CALM      30.34R                  
MONROE         FAIR      32  25  74 MISG      30.34S                  
JANESVILLE     FAIR      32  27  80 CALM      30.36R                  
$$
 
WIZ051-052-058>065-066-070>072-190800-
SOUTHEAST WISCONSIN
  
CITY           SKY/WX    TMP DP  RH WIND       PRES   REMARKS
MILWAUKEE      FAIR      31  22  69 CALM      30.34S                  
WAUKESHA       FAIR      27  21  80 CALM      30.35S                  
MILWAUKEE/TIMM FAIR      28  21  74 CALM      30.35S                  
RACINE           N/A     32  24  72 W3        30.36S                  
KENOSHA        FAIR      31  25  78 SW3       30.35S                  
FOND DU LAC    FAIR      32  23  69 SW5       30.32S WCI  27          
SHEBOYGAN      FAIR      30  23  75 SW3       30.33R                  
WEST BEND      FAIR      30  25  80 CALM      30.33S                  
JUNEAU         FAIR      30  24  79 CALM      30.34R                  
$$

LSZ147-162-190800-
LAKE SUPERIOR
  
STATION/POSITION TIME  TEMP    WIND        PRES    WAVE
                       AIR SEA DIR/SP/G            HT/PER
                 (UTC) (F)     (DEG/KT/KT) (MB)    (FT/S)
DEVILS ISLAND    0600   34     230/ 12/ 14 1024.1R
SAXON HARBOR     0640   33     210/  6/ 10 1023.7S
$$
 
LMZ867-665-643>646-190800-
LAKE MICHIGAN
  
STATION/POSITION TIME  TEMP    WIND        PRES    WAVE
                       AIR SEA DIR/SP/G            HT/PER
                 (UTC) (F)     (DEG/KT/KT) (MB)    (FT/S)
NORTHPORT PIER   0640   33     240/  2/  3 1025.4S
KEWAUNEE LAKESHO 0624   31     310/  3/  5 1025.4
SHEBOYGAN LAKESH 0600   34     210/  7/  8 1027.7S
PORT WASHINGTON  0630   33     270/  6/  9 1028.4S
MILWAUKEE LAKESH 0630   35                   N/A
KENOSHA   LAKESH 0600   35     250/  7/  8 1027.8
$$

TC  - TEMPERATURE IN CELSIUS
VSB - VISIBILITY IN STATUTE MILES
WCI - WIND CHILL INDEX
HX  - HEAT INDEX